COSMOS 1275 DEB, 12705

Orbit data source: Space-Track

COSMOS 1275 DEB, 12705 is space debris in LEO originally from a launch on Thu, 04 Jun 1981 UTC launched from the Plesetsk Missile And Space Complex (PKMTR). Debris objects in space refer to the collection of defunct objects orbiting the Earth. Examples of debris include non-operational satellites, rocket bodies, and fragments generated from explosions, collisions, or faulty payload assembly.

Loading next visibility...
Identifier
12705, 1981-053AZ
Orbit
LEO
Country
Flag of CISCIS
Related business
Manufacturer
Unknown
Mission
Spacecraft
Bus & Motor
Unknown
Mass
Unknown
Launch date (UTC)
1981-06-04 (45 years ago)
Launch vehicle
Unknown
Launch site
Plesetsk Missile And Space Complex (PKMTR)
Object type
Payload
Rocket body
Debris
Shape & HBR
Unknown shape, 0.3 m
Radar Cross Section
Medium (>0.1 m² and <1 m²)

Expand to show TLE details & history
Last TLE update: 13 hours ago

TLE from 13 hours ago
0 COSMOS 1275 DEB
1 12705U 81053AZ  26034.33525373  .00001639  00000-0  10093-2 0  9992
2 12705  82.8899 330.6427 0024239 236.9813 238.4440 14.04844109255246
Epoch: 2026-02-03T08:02Z
TLE epoch observation values (Epoch: 2026-02-03T08:02:45.922Z)
Latitude
63.97852°
Longitude
-118.29026°
Altitude
897.332 km
Speed
7.405 km/s
True Right ascension
09h 03m 40s
True Declination
63° 50' 43"
Sunlit
Object was in full shadow at epoch
Visualization orbit readout
Latitude
Unknown
Longitude
Unknown
Altitude
Unknown
Speed
Unknown
Apparent Right ascension
Unknown
Apparent Declination
Unknown
Sunlit
N/A
Visualization observer readout
Local Sidereal Time
22:35:56
Azimuth
Unknown
Elevation
Unknown
Doppler factor
Unknown
Orbital elements
Apogee altitude
891.758 km
Perigee altitude
856.6 km
Semi-major axis
7,252.316 km
Eccentricity
0.00242
Inclination
82.8899°
RAAN
330.6427°
Arg. of periapsis
236.9813°
True anomaly
238.20769°
Mean anomaly
238.444°
Eccentric anomaly
238.32581°
Mean motion
3.51421 °/min
Orbital period
102.44 mins
BSTAR
0.0010093
Loading maneuver chart data...
Computing Atmospheric mass density...

Documentation

Showing up to 5 results
|